Time,TemperatureF,DewpointF,PressureIn,WindDirection,WindDirectionDegrees,WindSpeedMPH,WindSpeedGustMPH,Humidity,HourlyPrecipIn,Conditions,Clouds,dailyrainin,SoftwareType,DateUTC
2013-03-07 00:00:00,37.6,28.8,29.98,West,270,2.7,4.7,70,0.00,,,0.02,WUHU216HW,2013-03-07 05:00:00,
2013-03-07 00:05:00,37.6,28.8,29.98,SSW,203,2.0,4.5,70,0.00,,,0.00,WUHU216HW,2013-03-07 05:05:00,
2013-03-07 00:10:00,37.6,28.8,29.97,WSW,248,1.8,4.5,70,0.00,,,0.00,WUHU216HW,2013-03-07 05:10:00,
2013-03-07 00:15:00,37.6,28.8,29.97,SSE,158,2.9,4.3,70,0.00,,,0.00,WUHU216HW,2013-03-07 05:15:00,
2013-03-07 00:20:00,37.6,28.8,29.98,SSW,203,2.2,4.3,70,0.00,,,0.00,WUHU216HW,2013-03-07 05:20:00,
2013-03-07 00:25:00,37.4,28.6,29.98,WSW,248,2.7,3.4,70,0.00,,,0.00,WUHU216HW,2013-03-07 05:25:00,
2013-03-07 00:30:00,37.4,29.0,29.98,WSW,248,1.8,6.7,71,0.00,,,0.00,WUHU216HW,2013-03-07 05:30:00,
2013-03-07 00:35:00,37.4,29.0,29.98,South,180,1.8,6.7,71,0.00,,,0.00,WUHU216HW,2013-03-07 05:35:00,
2013-03-07 00:40:00,37.3,28.8,29.98,SSW,203,2.0,5.6,71,0.00,,,0.00,WUHU216HW,2013-03-07 05:40:00,
2013-03-07 00:45:00,37.3,29.1,29.98,SSE,158,0.4,5.6,72,0.00,,,0.00,WUHU216HW,2013-03-07 05:45:00,
2013-03-07 00:50:00,37.3,29.1,29.98,SE,135,1.1,4.3,72,0.00,,,0.00,WUHU216HW,2013-03-07 05:50:00,
2013-03-07 00:55:00,37.1,28.9,29.98,WSW,248,5.1,5.1,72,0.00,,,0.00,WUHU216HW,2013-03-07 05:55:00,
2013-03-07 01:00:00,37.1,28.9,29.98,SW,225,2.0,5.1,72,0.00,,,0.00,WUHU216HW,2013-03-07 06:00:00,
2013-03-07 01:05:00,37.1,28.9,29.98,South,180,1.1,6.3,72,0.00,,,0.00,WUHU216HW,2013-03-07 06:05:00,
2013-03-07 01:10:00,37.1,28.9,29.98,East,90,1.1,6.3,72,0.00,,,0.00,WUHU216HW,2013-03-07 06:10:00,
2013-03-07 01:15:00,37.1,28.6,29.99,NW,315,5.6,5.6,71,0.00,,,0.00,WUHU216HW,2013-03-07 06:15:00,
2013-03-07 01:20:00,37.1,28.6,29.98,South,180,1.1,5.6,71,0.00,,,0.00,WUHU216HW,2013-03-07 06:20:00,
2013-03-07 01:25:00,37.1,28.6,29.98,East,90,0.7,5.6,71,0.00,,,0.00,WUHU216HW,2013-03-07 06:25:00,
2013-03-07 01:30:00,37.1,28.9,29.98,NW,315,3.8,4.7,72,0.00,,,0.00,WUHU216HW,2013-03-07 06:30:00,
2013-03-07 01:35:00,37.1,28.9,29.98,WNW,293,1.8,3.8,72,0.00,,,0.00,WUHU216HW,2013-03-07 06:35:00,
2013-03-07 01:40:00,36.9,29.1,29.98,NW,315,2.5,4.3,73,0.00,,,0.00,WUHU216HW,2013-03-07 06:40:00,
2013-03-07 01:45:00,36.7,28.9,29.97,WSW,248,1.1,4.3,73,0.00,,,0.00,WUHU216HW,2013-03-07 06:45:00,
2013-03-07 01:50:00,36.5,29.0,29.97,SW,225,1.6,2.7,74,0.00,,,0.00,WUHU216HW,2013-03-07 06:50:00,
2013-03-07 01:55:00,36.4,29.2,29.97,SSW,203,1.8,4.0,75,0.00,,,0.00,WUHU216HW,2013-03-07 06:55:00,
2013-03-07 02:00:00,36.2,29.4,29.97,NNW,338,1.1,4.0,76,0.00,,,0.00,WUHU216HW,2013-03-07 07:00:00,
2013-03-07 02:05:00,36.0,29.4,29.96,West,270,1.1,4.9,77,0.00,,,0.00,WUHU216HW,2013-03-07 07:05:00,
2013-03-07 02:10:00,35.6,29.4,29.96,West,270,1.8,4.9,78,0.00,,,0.00,WUHU216HW,2013-03-07 07:10:00,
2013-03-07 02:15:00,35.3,29.3,29.96,WSW,248,1.3,4.0,79,0.00,,,0.00,WUHU216HW,2013-03-07 07:15:00,
2013-03-07 02:20:00,34.9,29.3,29.96,West,270,2.7,4.0,80,0.00,,,0.00,WUHU216HW,2013-03-07 07:20:00,
2013-03-07 02:25:00,34.6,29.9,29.96,SSW,203,1.1,2.7,83,0.00,,,0.00,WUHU216HW,2013-03-07 07:25:00,
2013-03-07 02:30:00,34.2,29.8,29.96,West,270,3.4,4.0,84,0.00,,,0.00,WUHU216HW,2013-03-07 07:30:00,
2013-03-07 02:35:00,34.0,29.6,29.96,SE,135,0.4,5.8,84,0.00,,,0.00,WUHU216HW,2013-03-07 07:35:00,
2013-03-07 02:40:00,34.0,29.6,29.96,West,270,1.1,5.8,84,0.00,,,0.00,WUHU216HW,2013-03-07 07:40:00,
2013-03-07 02:45:00,34.0,29.6,29.96,NW,315,1.6,2.9,84,0.00,,,0.00,WUHU216HW,2013-03-07 07:45:00,
2013-03-07 02:50:00,34.0,29.6,29.96,SW,225,0.4,4.9,84,0.00,,,0.00,WUHU216HW,2013-03-07 07:50:00,
2013-03-07 02:55:00,34.0,29.6,29.96,WNW,293,1.6,4.9,84,0.00,,,0.00,WUHU216HW,2013-03-07 07:55:00,
2013-03-07 03:00:00,34.2,29.8,29.96,West,270,2.9,4.5,84,0.00,,,0.00,WUHU216HW,2013-03-07 08:00:00,
2013-03-07 03:05:00,34.2,29.5,29.95,West,270,0.7,4.0,83,0.00,,,0.00,WUHU216HW,2013-03-07 08:05:00,
2013-03-07 03:10:00,34.0,29.4,29.95,NW,315,1.1,4.7,83,0.00,,,0.00,WUHU216HW,2013-03-07 08:10:00,
2013-03-07 03:15:00,34.0,29.4,29.96,SW,225,1.6,4.7,83,0.00,,,0.00,WUHU216HW,2013-03-07 08:15:00,
2013-03-07 03:20:00,34.0,29.4,29.96,SW,225,0.4,4.7,83,0.00,,,0.00,WUHU216HW,2013-03-07 08:20:00,
2013-03-07 03:25:00,34.2,29.2,29.96,NW,315,1.8,4.0,82,0.00,,,0.00,WUHU216HW,2013-03-07 08:25:00,
2013-03-07 03:30:00,34.2,29.2,29.96,SW,225,0.0,4.0,82,0.00,,,0.00,WUHU216HW,2013-03-07 08:30:00,
2013-03-07 03:35:00,34.2,29.2,29.97,South,180,1.3,3.6,82,0.00,,,0.00,WUHU216HW,2013-03-07 08:35:00,
2013-03-07 03:40:00,34.2,29.5,29.97,SSW,203,0.2,3.4,83,0.00,,,0.00,WUHU216HW,2013-03-07 08:40:00,
2013-03-07 03:45:00,34.2,29.2,29.97,SSW,203,0.9,2.9,82,0.00,,,0.00,WUHU216HW,2013-03-07 08:45:00,
2013-03-07 03:50:00,34.2,29.2,29.97,WSW,248,3.1,4.0,82,0.00,,,0.00,WUHU216HW,2013-03-07 08:50:00,
2013-03-07 03:55:00,34.2,28.9,29.97,West,270,0.7,4.0,81,0.00,,,0.00,WUHU216HW,2013-03-07 08:55:00,
2013-03-07 04:00:00,34.0,29.0,29.97,SSW,203,0.4,4.3,82,0.00,,,0.00,WUHU216HW,2013-03-07 09:00:00,
2013-03-07 04:05:00,34.0,29.0,29.97,West,270,1.1,4.3,82,0.00,,,0.00,WUHU216HW,2013-03-07 09:05:00,
2013-03-07 04:10:00,34.0,29.0,29.97,South,180,2.5,5.4,82,0.00,,,0.00,WUHU216HW,2013-03-07 09:10:00,
2013-03-07 04:15:00,34.0,29.0,29.97,WNW,293,3.4,5.4,82,0.00,,,0.00,WUHU216HW,2013-03-07 09:15:00,
2013-03-07 04:20:00,33.8,28.8,29.97,SW,225,0.4,5.1,82,0.00,,,0.00,WUHU216HW,2013-03-07 09:20:00,
2013-03-07 04:25:00,33.7,29.0,29.97,West,270,1.8,4.7,83,0.00,,,0.00,WUHU216HW,2013-03-07 09:25:00,
2013-03-07 04:30:00,33.5,29.1,29.97,SW,225,2.0,5.4,84,0.00,,,0.00,WUHU216HW,2013-03-07 09:30:00,
2013-03-07 04:35:00,33.3,29.5,29.97,WNW,293,1.8,5.4,86,0.00,,,0.00,WUHU216HW,2013-03-07 09:35:00,
2013-03-07 04:40:00,33.1,29.3,29.97,SW,225,1.1,2.5,86,0.00,,,0.00,WUHU216HW,2013-03-07 09:40:00,
2013-03-07 04:46:00,32.9,29.2,29.97,WSW,248,1.3,3.1,86,0.00,,,0.00,WUHU216HW,2013-03-07 09:46:00,
2013-03-07 04:51:00,32.8,29.0,29.97,South,180,0.4,3.6,86,0.00,,,0.00,WUHU216HW,2013-03-07 09:51:00,
2013-03-07 04:56:00,32.8,29.4,29.97,WSW,248,0.4,3.6,87,0.00,,,0.00,WUHU216HW,2013-03-07 09:56:00,
2013-03-07 05:01:00,32.8,29.4,29.97,NW,315,0.9,3.4,87,0.00,,,0.00,WUHU216HW,2013-03-07 10:01:00,
2013-03-07 05:06:00,32.8,29.4,29.97,SW,225,1.3,4.7,87,0.00,,,0.00,WUHU216HW,2013-03-07 10:06:00,
2013-03-07 05:11:00,32.6,29.4,29.98,South,180,1.6,4.7,88,0.00,,,0.00,WUHU216HW,2013-03-07 10:11:00,
2013-03-07 05:16:00,32.6,29.4,29.98,East,90,0.4,2.7,88,0.00,,,0.00,WUHU216HW,2013-03-07 10:16:00,
2013-03-07 05:21:00,32.6,29.4,29.98,WSW,248,0.4,2.2,88,0.00,,,0.00,WUHU216HW,2013-03-07 10:21:00,
2013-03-07 05:26:00,32.6,29.4,29.98,SSW,203,0.7,4.5,88,0.00,,,0.00,WUHU216HW,2013-03-07 10:26:00,
2013-03-07 05:31:00,32.4,29.3,29.98,South,180,1.1,4.5,88,0.00,,,0.00,WUHU216HW,2013-03-07 10:31:00,
2013-03-07 05:36:00,32.4,29.5,29.99,WSW,248,0.0,3.1,89,0.00,,,0.00,WUHU216HW,2013-03-07 10:36:00,
2013-03-07 05:41:00,32.6,29.7,29.99,NW,315,1.3,4.3,89,0.00,,,0.00,WUHU216HW,2013-03-07 10:41:00,
2013-03-07 05:46:00,32.4,29.3,29.99,West,270,0.7,6.0,88,0.00,,,0.00,WUHU216HW,2013-03-07 10:46:00,
2013-03-07 05:51:00,32.4,29.5,29.99,West,270,1.1,6.0,89,0.00,,,0.00,WUHU216HW,2013-03-07 10:51:00,
2013-03-07 05:56:00,32.4,29.5,29.99,SSW,203,0.2,2.9,89,0.00,,,0.00,WUHU216HW,2013-03-07 10:56:00,
2013-03-07 06:01:00,32.4,29.5,30.00,SSE,158,1.8,2.9,89,0.00,,,0.00,WUHU216HW,2013-03-07 11:01:00,
2013-03-07 06:06:00,32.6,29.7,30.00,West,270,1.6,1.8,89,0.00,,,0.00,WUHU216HW,2013-03-07 11:06:00,
2013-03-07 06:11:00,32.6,29.4,30.00,WNW,293,2.0,3.4,88,0.00,,,0.00,WUHU216HW,2013-03-07 11:11:00,
2013-03-07 06:16:00,32.6,29.4,30.00,SSW,203,0.4,4.0,88,0.00,,,0.00,WUHU216HW,2013-03-07 11:16:00,
2013-03-07 06:21:00,32.6,29.4,30.00,SW,225,1.1,4.0,88,0.00,,,0.00,WUHU216HW,2013-03-07 11:21:00,
2013-03-07 06:26:00,32.6,29.4,30.00,WNW,293,0.7,5.4,88,0.00,,,0.00,WUHU216HW,2013-03-07 11:26:00,
2013-03-07 06:31:00,32.6,29.7,30.00,West,270,1.3,5.4,89,0.00,,,0.00,WUHU216HW,2013-03-07 11:31:00,
2013-03-07 06:36:00,32.8,29.6,30.00,WSW,248,1.3,4.3,88,0.00,,,0.00,WUHU216HW,2013-03-07 11:36:00,
2013-03-07 06:41:00,32.8,29.6,30.00,NW,315,0.7,2.7,88,0.00,,,0.00,WUHU216HW,2013-03-07 11:41:00,
2013-03-07 06:46:00,32.8,29.0,30.01,WSW,248,1.6,3.6,86,0.00,,,0.00,WUHU216HW,2013-03-07 11:46:00,
2013-03-07 06:51:00,32.8,29.0,30.01,SW,225,1.6,3.6,86,0.00,,,0.00,WUHU216HW,2013-03-07 11:51:00,
2013-03-07 06:56:00,32.8,29.0,30.01,West,270,0.4,2.9,86,0.00,,,0.00,WUHU216HW,2013-03-07 11:56:00,
2013-03-07 07:01:00,32.9,28.9,30.01,ESE,113,0.2,4.0,85,0.00,,,0.00,WUHU216HW,2013-03-07 12:01:00,
2013-03-07 07:06:00,32.9,28.9,30.01,SSW,203,0.7,4.0,85,0.00,,,0.00,WUHU216HW,2013-03-07 12:06:00,
2013-03-07 07:11:00,32.9,28.6,30.01,WSW,248,0.7,2.5,84,0.00,,,0.00,WUHU216HW,2013-03-07 12:11:00,
2013-03-07 07:16:00,32.9,28.6,30.01,South,180,0.0,2.5,84,0.00,,,0.00,WUHU216HW,2013-03-07 12:16:00,
2013-03-07 07:21:00,32.9,28.6,30.01,West,270,2.9,2.9,84,0.00,,,0.00,WUHU216HW,2013-03-07 12:21:00,
2013-03-07 07:26:00,32.9,28.9,30.01,South,180,1.1,2.9,85,0.00,,,0.00,WUHU216HW,2013-03-07 12:26:00,
2013-03-07 07:31:00,32.8,29.0,30.01,WSW,248,0.9,2.7,86,0.00,,,0.00,WUHU216HW,2013-03-07 12:31:00,
2013-03-07 07:36:00,32.6,28.9,30.01,WNW,293,1.8,2.7,86,0.00,,,0.00,WUHU216HW,2013-03-07 12:36:00,
2013-03-07 07:41:00,32.4,29.0,30.02,South,180,0.7,3.6,87,0.00,,,0.00,WUHU216HW,2013-03-07 12:41:00,
2013-03-07 07:46:00,32.4,29.0,30.01,SE,135,1.3,3.6,87,0.00,,,0.00,WUHU216HW,2013-03-07 12:46:00,
2013-03-07 07:51:00,32.6,29.2,30.01,South,180,0.4,2.0,87,0.00,,,0.00,WUHU216HW,2013-03-07 12:51:00,
2013-03-07 07:56:00,32.6,29.4,30.02,South,180,0.2,2.0,88,0.00,,,0.00,WUHU216HW,2013-03-07 12:56:00,
2013-03-07 08:01:00,32.6,29.4,30.02,South,180,0.9,2.2,88,0.00,,,0.00,WUHU216HW,2013-03-07 13:01:00,
2013-03-07 08:06:00,32.4,29.3,30.01,WSW,248,2.2,2.2,88,0.00,,,0.00,WUHU216HW,2013-03-07 13:06:00,
2013-03-07 08:11:00,32.4,29.3,30.01,South,180,0.4,4.7,88,0.00,,,0.00,WUHU216HW,2013-03-07 13:11:00,
2013-03-07 08:16:00,32.4,29.5,30.01,South,180,0.9,4.7,89,0.00,,,0.00,WUHU216HW,2013-03-07 13:16:00,
2013-03-07 08:21:00,32.6,29.7,30.01,South,180,0.4,1.6,89,0.00,,,0.00,WUHU216HW,2013-03-07 13:21:00,
2013-03-07 08:26:00,32.6,29.4,30.01,SSW,203,2.5,2.5,88,0.00,,,0.00,WUHU216HW,2013-03-07 13:26:00,
2013-03-07 08:32:00,32.6,29.4,30.01,West,270,0.0,2.5,88,0.00,,,0.00,WUHU216HW,2013-03-07 13:32:00,
2013-03-07 08:37:00,32.6,29.4,30.01,WSW,248,1.1,3.4,88,0.00,,,0.00,WUHU216HW,2013-03-07 13:37:00,
2013-03-07 08:42:00,32.8,29.6,30.01,WSW,248,0.4,3.4,88,0.00,,,0.00,WUHU216HW,2013-03-07 13:42:00,
2013-03-07 08:47:00,32.9,29.8,30.01,West,270,0.4,1.8,88,0.00,,,0.00,WUHU216HW,2013-03-07 13:47:00,
2013-03-07 08:52:00,32.9,29.8,30.01,South,180,1.1,2.9,88,0.00,,,0.00,WUHU216HW,2013-03-07 13:52:00,
2013-03-07 08:57:00,33.1,29.6,30.01,SSW,203,1.8,2.9,87,0.00,,,0.00,WUHU216HW,2013-03-07 13:57:00,
2013-03-07 09:02:00,33.1,29.3,30.01,SW,225,2.2,4.3,86,0.00,,,0.00,WUHU216HW,2013-03-07 14:02:00,
2013-03-07 09:07:00,33.3,29.5,30.01,East,90,1.1,4.3,86,0.00,,,0.00,WUHU216HW,2013-03-07 14:07:00,
2013-03-07 09:12:00,33.5,29.7,30.01,West,270,2.5,4.0,86,0.00,,,0.00,WUHU216HW,2013-03-07 14:12:00,
2013-03-07 09:17:00,33.5,29.7,30.01,WNW,293,1.8,4.5,86,0.00,,,0.00,WUHU216HW,2013-03-07 14:17:00,
2013-03-07 09:22:00,33.5,29.3,30.01,West,270,1.1,4.5,85,0.00,,,0.00,WUHU216HW,2013-03-07 14:22:00,
2013-03-07 09:27:00,33.5,29.7,30.00,North,0,1.8,4.0,86,0.00,,,0.00,WUHU216HW,2013-03-07 14:27:00,
2013-03-07 09:32:00,33.5,29.3,30.00,SSE,158,2.2,5.6,85,0.00,,,0.00,WUHU216HW,2013-03-07 14:32:00,
2013-03-07 09:37:00,33.7,29.3,30.00,SSW,203,2.9,5.6,84,0.00,,,0.00,WUHU216HW,2013-03-07 14:37:00,
2013-03-07 09:42:00,33.8,29.2,30.00,WSW,248,2.5,4.3,83,0.00,,,0.00,WUHU216HW,2013-03-07 14:42:00,
2013-03-07 09:47:00,33.8,29.2,30.00,WSW,248,1.1,4.3,83,0.00,,,0.00,WUHU216HW,2013-03-07 14:47:00,
2013-03-07 09:52:00,33.8,29.2,30.00,SW,225,1.1,7.2,83,0.00,,,0.00,WUHU216HW,2013-03-07 14:52:00,
2013-03-07 09:57:00,34.0,29.6,29.99,SSW,203,0.9,7.2,84,0.00,,,0.00,WUHU216HW,2013-03-07 14:57:00,
2013-03-07 10:02:00,34.2,29.5,30.00,ENE,68,4.7,5.4,83,0.00,,,0.00,WUHU216HW,2013-03-07 15:02:00,
2013-03-07 10:07:00,34.4,29.3,29.99,SSW,203,3.1,6.7,82,0.00,,,0.00,WUHU216HW,2013-03-07 15:07:00,
2013-03-07 10:12:00,34.6,29.3,30.00,SW,225,1.8,6.7,81,0.01,,,0.00,WUHU216HW,2013-03-07 15:12:00,
2013-03-07 10:17:00,34.7,29.4,30.00,SSW,203,1.1,3.8,81,0.01,,,0.00,WUHU216HW,2013-03-07 15:17:00,
2013-03-07 10:22:00,34.9,29.6,29.99,South,180,2.0,3.8,81,0.01,,,0.00,WUHU216HW,2013-03-07 15:22:00,
2013-03-07 10:27:00,34.9,29.3,30.00,NW,315,3.4,5.1,80,0.01,,,0.00,WUHU216HW,2013-03-07 15:27:00,
2013-03-07 10:32:00,34.9,29.3,30.00,SSE,158,1.8,5.1,80,0.02,,,0.02,WUHU216HW,2013-03-07 15:32:00,
2013-03-07 10:37:00,34.9,29.3,30.00,South,180,0.4,5.6,80,0.02,,,0.02,WUHU216HW,2013-03-07 15:37:00,
2013-03-07 10:42:00,35.1,29.2,30.00,WNW,293,4.3,5.6,79,0.02,,,0.02,WUHU216HW,2013-03-07 15:42:00,
2013-03-07 10:47:00,35.3,29.3,30.00,SSE,158,0.4,4.3,79,0.02,,,0.02,WUHU216HW,2013-03-07 15:47:00,
2013-03-07 10:52:00,35.5,29.3,30.00,WNW,293,2.0,4.3,78,0.02,,,0.02,WUHU216HW,2013-03-07 15:52:00,
2013-03-07 10:57:00,35.6,29.4,30.00,West,270,2.2,4.0,78,0.02,,,0.02,WUHU216HW,2013-03-07 15:57:00,
2013-03-07 11:02:00,35.6,29.4,30.00,WSW,248,0.4,3.8,78,0.03,,,0.02,WUHU216HW,2013-03-07 16:02:00,
2013-03-07 11:07:00,35.8,29.3,30.00,SSW,203,2.9,4.3,77,0.03,,,0.02,WUHU216HW,2013-03-07 16:07:00,
2013-03-07 11:12:00,36.0,29.4,30.00,WSW,248,0.7,4.7,77,0.02,,,0.02,WUHU216HW,2013-03-07 16:12:00,
2013-03-07 11:17:00,36.2,29.4,30.00,SSW,203,2.2,4.7,76,0.02,,,0.02,WUHU216HW,2013-03-07 16:17:00,
2013-03-07 11:22:00,36.4,29.2,30.01,WSW,248,3.1,6.5,75,0.03,,,0.04,WUHU216HW,2013-03-07 16:22:00,
2013-03-07 11:28:00,36.4,29.5,30.01,West,270,1.3,6.5,76,0.03,,,0.04,WUHU216HW,2013-03-07 16:28:00,
2013-03-07 11:33:00,36.5,29.7,30.01,SW,225,0.9,4.7,76,0.02,,,0.04,WUHU216HW,2013-03-07 16:33:00,
2013-03-07 11:38:00,36.7,29.5,30.01,SW,225,0.9,4.7,75,0.02,,,0.04,WUHU216HW,2013-03-07 16:38:00,
2013-03-07 11:43:00,36.9,29.7,30.01,West,270,1.8,5.1,75,0.03,,,0.04,WUHU216HW,2013-03-07 16:43:00,
2013-03-07 11:48:00,37.1,29.5,30.01,SSW,203,4.0,6.5,74,0.03,,,0.04,WUHU216HW,2013-03-07 16:48:00,
2013-03-07 11:53:00,37.1,29.5,30.01,WSW,248,0.2,6.5,74,0.03,,,0.04,WUHU216HW,2013-03-07 16:53:00,
2013-03-07 11:58:00,37.3,29.7,30.01,West,270,1.8,4.0,74,0.02,,,0.04,WUHU216HW,2013-03-07 16:58:00,
2013-03-07 12:03:00,37.4,29.6,30.01,West,270,1.8,4.7,73,0.02,,,0.04,WUHU216HW,2013-03-07 17:03:00,
2013-03-07 12:08:00,37.4,29.3,30.01,WNW,293,2.5,4.7,72,0.03,,,0.06,WUHU216HW,2013-03-07 17:08:00,
2013-03-07 12:13:00,37.4,29.6,30.01,WSW,248,2.2,4.3,73,0.03,,,0.06,WUHU216HW,2013-03-07 17:13:00,
2013-03-07 12:18:00,37.4,29.3,30.01,SSW,203,4.0,5.4,72,0.03,,,0.06,WUHU216HW,2013-03-07 17:18:00,
2013-03-07 12:23:00,37.4,29.6,30.01,NW,315,0.4,5.4,73,0.02,,,0.06,WUHU216HW,2013-03-07 17:23:00,
2013-03-07 12:28:00,37.4,29.6,30.01,SW,225,3.8,4.7,73,0.02,,,0.06,WUHU216HW,2013-03-07 17:28:00,
2013-03-07 12:33:00,37.1,29.9,30.00,SW,225,2.2,6.9,75,0.02,,,0.06,WUHU216HW,2013-03-07 17:33:00,
2013-03-07 12:38:00,36.7,29.9,30.01,SE,135,2.2,6.9,76,0.03,,,0.07,WUHU216HW,2013-03-07 17:38:00,
2013-03-07 12:43:00,36.5,30.0,30.01,WNW,293,1.1,7.2,77,0.02,,,0.07,WUHU216HW,2013-03-07 17:43:00,
2013-03-07 12:48:00,36.4,30.4,30.01,SSW,203,1.1,7.2,79,0.02,,,0.07,WUHU216HW,2013-03-07 17:48:00,
2013-03-07 12:53:00,36.4,30.8,30.01,SSW,203,0.2,3.8,80,0.02,,,0.07,WUHU216HW,2013-03-07 17:53:00,
2013-03-07 12:58:00,36.4,30.8,30.00,SW,225,1.8,3.1,80,0.02,,,0.07,WUHU216HW,2013-03-07 17:58:00,
2013-03-07 13:03:00,36.4,30.8,30.00,ENE,68,1.8,4.7,80,0.02,,,0.07,WUHU216HW,2013-03-07 18:03:00,
2013-03-07 13:08:00,36.5,31.0,30.00,West,270,3.1,4.7,80,0.01,,,0.07,WUHU216HW,2013-03-07 18:08:00,
2013-03-07 13:13:00,36.5,31.0,30.00,SSW,203,2.2,3.6,80,0.01,,,0.07,WUHU216HW,2013-03-07 18:13:00,
2013-03-07 13:18:00,36.2,30.9,30.00,WSW,248,3.8,4.5,81,0.02,,,0.07,WUHU216HW,2013-03-07 18:18:00,
2013-03-07 13:23:00,36.0,31.0,30.00,SW,225,0.0,4.5,82,0.02,,,0.07,WUHU216HW,2013-03-07 18:23:00,
2013-03-07 13:28:00,36.2,32.0,30.00,West,270,1.1,4.0,85,0.02,,,0.07,WUHU216HW,2013-03-07 18:28:00,
2013-03-07 13:33:00,36.4,32.5,30.00,SW,225,1.6,3.8,86,0.01,,,0.07,WUHU216HW,2013-03-07 18:33:00,
2013-03-07 13:38:00,36.5,32.1,30.00,SSW,203,1.1,3.4,84,0.01,,,0.07,WUHU216HW,2013-03-07 18:38:00,
2013-03-07 13:44:00,36.4,32.0,30.00,SW,225,1.1,3.4,84,0.02,,,0.09,WUHU216HW,2013-03-07 18:44:00,
2013-03-07 13:49:00,36.4,32.5,30.00,West,270,0.4,3.4,86,0.02,,,0.09,WUHU216HW,2013-03-07 18:49:00,
2013-03-07 13:54:00,36.4,32.8,30.00,North,0,2.5,4.3,87,0.02,,,0.09,WUHU216HW,2013-03-07 18:54:00,
2013-03-07 13:59:00,36.2,32.3,30.00,North,0,1.1,4.3,86,0.02,,,0.09,WUHU216HW,2013-03-07 18:59:00,
2013-03-07 14:04:00,36.0,32.4,30.00,SSW,203,0.2,4.7,87,0.02,,,0.09,WUHU216HW,2013-03-07 19:04:00,
2013-03-07 14:09:00,35.8,32.2,30.01,SW,225,4.3,4.7,87,0.02,,,0.09,WUHU216HW,2013-03-07 19:09:00,
2013-03-07 14:14:00,35.8,32.2,30.01,SSW,203,2.0,4.3,87,0.01,,,0.09,WUHU216HW,2013-03-07 19:14:00,
2013-03-07 14:19:00,35.6,31.8,30.01,NNW,338,0.4,4.3,86,0.01,,,0.09,WUHU216HW,2013-03-07 19:19:00,
2013-03-07 14:24:00,35.6,32.0,30.01,SSW,203,1.1,2.5,87,0.02,,,0.09,WUHU216HW,2013-03-07 19:24:00,
2013-03-07 14:29:00,35.6,32.4,30.01,SW,225,1.3,2.5,88,0.02,,,0.09,WUHU216HW,2013-03-07 19:29:00,
2013-03-07 14:34:00,35.6,32.4,30.01,SSW,203,1.3,2.9,88,0.02,,,0.09,WUHU216HW,2013-03-07 19:34:00,
2013-03-07 14:39:00,35.6,32.4,30.01,West,270,1.1,5.6,88,0.02,,,0.09,WUHU216HW,2013-03-07 19:39:00,
2013-03-07 14:44:00,35.8,32.6,30.01,SSE,158,1.6,5.6,88,0.01,,,0.09,WUHU216HW,2013-03-07 19:44:00,
2013-03-07 14:49:00,36.0,32.4,30.01,South,180,2.2,4.0,87,0.01,,,0.09,WUHU216HW,2013-03-07 19:49:00,
2013-03-07 14:54:00,35.8,32.2,30.01,WSW,248,1.1,4.0,87,0.01,,,0.09,WUHU216HW,2013-03-07 19:54:00,
2013-03-07 14:59:00,35.8,32.2,30.01,WSW,248,1.1,4.0,87,0.01,,,0.09,WUHU216HW,2013-03-07 19:59:00,
2013-03-07 15:04:00,35.8,32.6,30.01,SW,225,0.9,2.9,88,0.01,,,0.09,WUHU216HW,2013-03-07 20:04:00,
2013-03-07 15:09:00,36.0,32.8,30.01,West,270,1.3,2.5,88,0.01,,,0.09,WUHU216HW,2013-03-07 20:09:00,
2013-03-07 15:14:00,35.8,32.2,30.02,WSW,248,0.9,2.9,87,0.01,,,0.09,WUHU216HW,2013-03-07 20:14:00,
2013-03-07 15:19:00,35.8,32.6,30.02,WSW,248,1.6,2.9,88,0.01,,,0.09,WUHU216HW,2013-03-07 20:19:00,
2013-03-07 15:24:00,36.0,33.0,30.02,West,270,1.1,2.5,89,0.00,,,0.09,WUHU216HW,2013-03-07 20:24:00,
2013-03-07 15:29:00,35.8,32.9,30.02,West,270,1.8,2.5,89,0.00,,,0.09,WUHU216HW,2013-03-07 20:29:00,
2013-03-07 15:34:00,35.6,32.4,30.02,SW,225,0.9,2.5,88,0.00,,,0.09,WUHU216HW,2013-03-07 20:34:00,
2013-03-07 15:39:00,35.6,32.4,30.02,WSW,248,0.9,2.0,88,0.00,,,0.09,WUHU216HW,2013-03-07 20:39:00,
2013-03-07 15:44:00,35.5,32.2,30.02,West,270,0.9,2.0,88,0.00,,,0.09,WUHU216HW,2013-03-07 20:44:00,
2013-03-07 15:49:00,35.6,32.4,30.02,WSW,248,0.4,3.8,88,0.01,,,0.11,WUHU216HW,2013-03-07 20:49:00,
2013-03-07 15:54:00,35.5,32.2,30.02,WSW,248,1.3,3.8,88,0.01,,,0.11,WUHU216HW,2013-03-07 20:54:00,
2013-03-07 15:59:00,35.6,32.7,30.02,SW,225,0.7,2.7,89,0.01,,,0.11,WUHU216HW,2013-03-07 20:59:00,
2013-03-07 16:04:00,35.5,32.5,30.02,West,270,0.4,3.4,89,0.01,,,0.11,WUHU216HW,2013-03-07 21:04:00,
2013-03-07 16:09:00,35.5,32.5,30.02,SW,225,0.4,3.4,89,0.01,,,0.11,WUHU216HW,2013-03-07 21:09:00,
2013-03-07 16:14:00,35.3,32.3,30.02,SSE,158,0.4,3.1,89,0.01,,,0.11,WUHU216HW,2013-03-07 21:14:00,
2013-03-07 16:19:00,35.3,32.3,30.02,ESE,113,0.4,4.0,89,0.01,,,0.11,WUHU216HW,2013-03-07 21:19:00,
2013-03-07 16:24:00,35.1,32.1,30.02,WNW,293,1.8,4.0,89,0.01,,,0.11,WUHU216HW,2013-03-07 21:24:00,
2013-03-07 16:29:00,35.1,31.9,30.02,WSW,248,1.1,2.9,88,0.01,,,0.11,WUHU216HW,2013-03-07 21:29:00,
2013-03-07 16:34:00,35.1,31.9,30.02,SSW,203,0.7,2.9,88,0.01,,,0.11,WUHU216HW,2013-03-07 21:34:00,
2013-03-07 16:40:00,35.1,32.1,30.02,SW,225,2.5,2.9,89,0.01,,,0.11,WUHU216HW,2013-03-07 21:40:00,
2013-03-07 16:45:00,35.3,32.3,30.02,SSW,203,0.4,5.1,89,0.01,,,0.11,WUHU216HW,2013-03-07 21:45:00,
2013-03-07 16:50:00,35.3,32.3,30.02,West,270,0.4,5.1,89,0.00,,,0.11,WUHU216HW,2013-03-07 21:50:00,
2013-03-07 16:55:00,35.3,32.3,30.02,SW,225,0.4,2.5,89,0.00,,,0.11,WUHU216HW,2013-03-07 21:55:00,
2013-03-07 17:00:00,35.1,32.1,30.02,West,270,0.4,3.4,89,0.00,,,0.11,WUHU216HW,2013-03-07 22:00:00,
2013-03-07 17:05:00,35.1,31.9,30.02,SW,225,2.5,3.4,88,0.00,,,0.11,WUHU216HW,2013-03-07 22:05:00,
2013-03-07 17:10:00,34.9,31.7,30.02,SW,225,1.6,3.1,88,0.00,,,0.11,WUHU216HW,2013-03-07 22:10:00,
2013-03-07 17:15:00,34.9,31.7,30.03,South,180,1.3,3.1,88,0.00,,,0.11,WUHU216HW,2013-03-07 22:15:00,
2013-03-07 17:20:00,34.6,31.6,30.03,WSW,248,0.2,2.7,89,0.00,,,0.11,WUHU216HW,2013-03-07 22:20:00,
2013-03-07 17:25:00,34.7,31.8,30.03,West,270,0.7,2.5,89,0.00,,,0.11,WUHU216HW,2013-03-07 22:25:00,
2013-03-07 17:30:00,34.7,31.8,30.03,SE,135,0.4,2.2,89,0.01,,,0.11,WUHU216HW,2013-03-07 22:30:00,
2013-03-07 17:35:00,34.4,31.4,30.03,WSW,248,0.2,2.7,89,0.01,,,0.11,WUHU216HW,2013-03-07 22:35:00,
2013-03-07 17:40:00,34.4,31.4,30.03,SW,225,1.1,2.7,89,0.01,,,0.11,WUHU216HW,2013-03-07 22:40:00,
2013-03-07 17:45:00,34.2,31.2,30.03,SW,225,0.9,3.4,89,0.01,,,0.11,WUHU216HW,2013-03-07 22:45:00,
2013-03-07 17:50:00,34.0,31.1,30.04,SW,225,0.4,3.4,89,0.01,,,0.11,WUHU216HW,2013-03-07 22:50:00,
2013-03-07 17:55:00,33.8,30.9,30.04,SW,225,0.4,2.5,89,0.01,,,0.11,WUHU216HW,2013-03-07 22:55:00,
2013-03-07 18:00:00,33.8,31.1,30.04,West,270,0.4,2.5,90,0.01,,,0.11,WUHU216HW,2013-03-07 23:00:00,
2013-03-07 18:05:00,34.0,31.6,30.04,SW,225,0.4,1.8,91,0.01,,,0.11,WUHU216HW,2013-03-07 23:05:00,
2013-03-07 18:10:00,33.8,31.1,30.04,WSW,248,0.4,2.0,90,0.01,,,0.11,WUHU216HW,2013-03-07 23:10:00,
2013-03-07 18:15:00,33.7,31.0,30.04,WNW,293,1.1,2.0,90,0.01,,,0.11,WUHU216HW,2013-03-07 23:15:00,
2013-03-07 18:20:00,33.5,30.8,30.04,SW,225,1.8,2.5,90,0.01,,,0.11,WUHU216HW,2013-03-07 23:20:00,
2013-03-07 18:25:00,33.5,30.8,30.04,WSW,248,0.9,2.7,90,0.00,,,0.11,WUHU216HW,2013-03-07 23:25:00,
2013-03-07 18:30:00,33.5,30.8,30.04,South,180,0.0,2.7,90,0.00,,,0.11,WUHU216HW,2013-03-07 23:30:00,
2013-03-07 18:35:00,33.3,30.7,30.04,SW,225,2.0,2.0,90,0.00,,,0.11,WUHU216HW,2013-03-07 23:35:00,
2013-03-07 18:40:00,33.3,31.0,30.04,SSW,203,0.0,2.5,91,0.00,,,0.11,WUHU216HW,2013-03-07 23:40:00,
2013-03-07 18:45:00,33.1,30.8,30.05,West,270,1.6,2.5,91,0.00,,,0.11,WUHU216HW,2013-03-07 23:45:00,
2013-03-07 18:50:00,33.1,30.8,30.04,SSW,203,0.2,1.8,91,0.00,,,0.11,WUHU216HW,2013-03-07 23:50:00,
2013-03-07 18:55:00,33.1,30.8,30.04,SSW,203,0.4,2.2,91,0.00,,,0.11,WUHU216HW,2013-03-07 23:55:00,
2013-03-07 19:00:00,33.1,31.1,30.04,West,270,0.2,2.2,92,0.00,,,0.11,WUHU216HW,2013-03-08 00:00:00,
2013-03-07 19:05:00,33.1,31.1,30.04,SSE,158,1.1,1.8,92,0.00,,,0.11,WUHU216HW,2013-03-08 00:05:00,
2013-03-07 19:10:00,33.1,31.1,30.04,SW,225,0.7,1.8,92,0.00,,,0.11,WUHU216HW,2013-03-08 00:10:00,
2013-03-07 19:15:00,33.1,31.1,30.04,SW,225,0.2,1.3,92,0.01,,,0.13,WUHU216HW,2013-03-08 00:15:00,
2013-03-07 19:20:00,33.1,31.1,30.04,NW,315,0.7,1.8,92,0.01,,,0.13,WUHU216HW,2013-03-08 00:20:00,
2013-03-07 19:25:00,33.3,31.1,30.04,South,180,0.4,2.9,92,0.01,,,0.13,WUHU216HW,2013-03-08 00:25:00,
2013-03-07 19:30:00,33.1,31.1,30.04,SSE,158,0.7,2.9,92,0.01,,,0.13,WUHU216HW,2013-03-08 00:30:00,
2013-03-07 19:35:00,33.1,31.1,30.04,SSE,158,0.4,1.8,92,0.01,,,0.13,WUHU216HW,2013-03-08 00:35:00,
2013-03-07 19:40:00,33.1,31.1,30.04,West,270,0.4,1.8,92,0.01,,,0.13,WUHU216HW,2013-03-08 00:40:00,
2013-03-07 19:45:00,33.1,31.1,30.04,South,180,0.2,2.9,92,0.01,,,0.13,WUHU216HW,2013-03-08 00:45:00,
2013-03-07 19:50:00,33.1,31.1,30.04,South,180,0.4,2.9,92,0.01,,,0.13,WUHU216HW,2013-03-08 00:50:00,
2013-03-07 19:55:00,33.1,31.1,30.04,South,180,0.0,1.8,92,0.01,,,0.13,WUHU216HW,2013-03-08 00:55:00,
2013-03-07 20:00:00,33.1,31.1,30.04,WSW,248,0.0,1.8,92,0.01,,,0.13,WUHU216HW,2013-03-08 01:00:00,
2013-03-07 20:05:00,33.1,31.1,30.04,West,270,0.0,2.9,92,0.01,,,0.13,WUHU216HW,2013-03-08 01:05:00,
2013-03-07 20:10:00,33.1,31.1,30.04,WSW,248,0.2,2.9,92,0.01,,,0.13,WUHU216HW,2013-03-08 01:10:00,
2013-03-07 20:15:00,33.1,31.1,30.04,WSW,248,1.1,1.8,92,0.00,,,0.13,WUHU216HW,2013-03-08 01:15:00,
2013-03-07 20:20:00,32.9,30.9,30.04,SW,225,0.4,2.5,92,0.00,,,0.13,WUHU216HW,2013-03-08 01:20:00,
2013-03-07 20:25:00,33.3,31.1,30.04,South,180,1.3,2.5,92,0.00,,,0.13,WUHU216HW,2013-03-08 01:25:00,
2013-03-07 20:30:00,33.3,31.1,30.04,SSW,203,0.9,2.2,92,0.00,,,0.13,WUHU216HW,2013-03-08 01:30:00,
2013-03-07 20:35:00,33.1,31.1,30.03,NNE,23,0.7,1.8,92,0.00,,,0.13,WUHU216HW,2013-03-08 01:35:00,
2013-03-07 20:40:00,33.1,31.1,30.03,South,180,0.2,1.6,92,0.00,,,0.13,WUHU216HW,2013-03-08 01:40:00,
2013-03-07 20:45:00,33.1,31.1,30.04,West,270,1.3,1.3,92,0.00,,,0.13,WUHU216HW,2013-03-08 01:45:00,
2013-03-07 20:50:00,33.1,31.1,30.04,South,180,0.4,1.8,92,0.00,,,0.13,WUHU216HW,2013-03-08 01:50:00,
2013-03-07 20:55:00,32.9,30.9,30.03,South,180,0.2,1.8,92,0.00,,,0.13,WUHU216HW,2013-03-08 01:55:00,
2013-03-07 21:00:00,32.9,30.9,30.03,South,180,0.2,1.8,92,0.00,,,0.13,WUHU216HW,2013-03-08 02:00:00,
2013-03-07 21:05:00,32.9,30.9,30.03,NW,315,0.4,1.8,92,0.00,,,0.13,WUHU216HW,2013-03-08 02:05:00,
2013-03-07 21:10:00,33.1,31.1,30.02,South,180,0.0,1.8,92,0.00,,,0.13,WUHU216HW,2013-03-08 02:10:00,
2013-03-07 21:15:00,33.1,31.1,30.02,South,180,1.1,1.1,92,0.00,,,0.13,WUHU216HW,2013-03-08 02:15:00,
2013-03-07 21:20:00,32.9,30.9,30.02,South,180,0.0,1.1,92,0.00,,,0.13,WUHU216HW,2013-03-08 02:20:00,
2013-03-07 21:26:00,32.9,30.9,30.02,South,180,0.7,1.1,92,0.00,,,0.13,WUHU216HW,2013-03-08 02:26:00,
2013-03-07 21:31:00,32.9,30.9,30.02,South,180,0.0,1.3,92,0.00,,,0.13,WUHU216HW,2013-03-08 02:31:00,
2013-03-07 21:36:00,32.8,30.7,30.02,South,180,0.0,1.3,92,0.00,,,0.13,WUHU216HW,2013-03-08 02:36:00,
2013-03-07 21:41:00,32.9,30.9,30.02,South,180,0.7,0.9,92,0.00,,,0.13,WUHU216HW,2013-03-08 02:41:00,
2013-03-07 21:46:00,32.8,30.7,30.02,South,180,0.7,0.9,92,0.00,,,0.13,WUHU216HW,2013-03-08 02:46:00,
2013-03-07 21:51:00,32.8,30.7,30.02,South,180,0.0,0.9,92,0.00,,,0.13,WUHU216HW,2013-03-08 02:51:00,
2013-03-07 21:56:00,33.1,31.1,30.01,South,180,1.8,1.8,92,0.00,,,0.13,WUHU216HW,2013-03-08 02:56:00,
2013-03-07 22:01:00,33.3,31.4,30.01,South,180,1.1,1.8,93,0.00,,,0.13,WUHU216HW,2013-03-08 03:01:00,
2013-03-07 22:06:00,33.1,31.1,30.01,South,180,0.2,1.8,92,0.00,,,0.13,WUHU216HW,2013-03-08 03:06:00,
2013-03-07 22:11:00,32.9,31.2,30.01,South,180,0.0,1.1,93,0.00,,,0.13,WUHU216HW,2013-03-08 03:11:00,
2013-03-07 22:16:00,32.8,31.0,30.01,South,180,0.0,1.1,93,0.00,,,0.13,WUHU216HW,2013-03-08 03:16:00,
2013-03-07 22:21:00,32.8,31.0,30.01,South,180,0.4,0.7,93,0.00,,,0.13,WUHU216HW,2013-03-08 03:21:00,
2013-03-07 22:26:00,32.8,31.0,30.01,South,180,0.0,0.9,93,0.00,,,0.13,WUHU216HW,2013-03-08 03:26:00,
2013-03-07 22:31:00,32.8,31.0,30.00,South,180,1.3,1.3,93,0.00,,,0.13,WUHU216HW,2013-03-08 03:31:00,
2013-03-07 22:36:00,32.8,30.7,30.00,South,180,0.2,1.3,92,0.00,,,0.13,WUHU216HW,2013-03-08 03:36:00,
2013-03-07 22:41:00,32.9,31.2,30.00,South,180,0.4,1.1,93,0.00,,,0.13,WUHU216HW,2013-03-08 03:41:00,
2013-03-07 22:46:00,33.1,31.1,30.00,South,180,0.4,1.1,92,0.00,,,0.13,WUHU216HW,2013-03-08 03:46:00,
2013-03-07 22:51:00,33.1,31.3,30.00,South,180,0.0,2.2,93,0.00,,,0.13,WUHU216HW,2013-03-08 03:51:00,
2013-03-07 22:56:00,32.9,31.2,30.00,South,180,0.0,2.2,93,0.00,,,0.13,WUHU216HW,2013-03-08 03:56:00,
2013-03-07 23:01:00,32.9,30.9,30.00,South,180,0.2,1.3,92,0.00,,,0.13,WUHU216HW,2013-03-08 04:01:00,
2013-03-07 23:06:00,32.9,30.9,30.00,South,180,0.4,1.3,92,0.00,,,0.13,WUHU216HW,2013-03-08 04:06:00,
2013-03-07 23:11:00,32.9,30.9,30.00,South,180,0.2,0.7,92,0.00,,,0.13,WUHU216HW,2013-03-08 04:11:00,
2013-03-07 23:16:00,32.8,31.0,30.00,South,180,0.0,0.9,93,0.00,,,0.13,WUHU216HW,2013-03-08 04:16:00,
2013-03-07 23:21:00,32.8,31.0,30.00,South,180,1.3,2.0,93,0.00,,,0.13,WUHU216HW,2013-03-08 04:21:00,
2013-03-07 23:26:00,32.8,31.0,30.00,South,180,0.0,2.0,93,0.00,,,0.13,WUHU216HW,2013-03-08 04:26:00,
2013-03-07 23:31:00,32.8,31.0,30.00,South,180,0.4,1.1,93,0.00,,,0.13,WUHU216HW,2013-03-08 04:31:00,
2013-03-07 23:36:00,32.8,31.0,30.00,South,180,0.2,1.6,93,0.00,,,0.13,WUHU216HW,2013-03-08 04:36:00,
2013-03-07 23:41:00,32.8,31.0,30.00,South,180,0.0,1.6,93,0.00,,,0.13,WUHU216HW,2013-03-08 04:41:00,
2013-03-07 23:46:00,32.8,31.0,30.00,South,180,0.0,1.1,93,0.00,,,0.13,WUHU216HW,2013-03-08 04:46:00,
2013-03-07 23:51:00,32.8,31.0,29.99,South,180,0.0,1.1,93,0.00,,,0.13,WUHU216HW,2013-03-08 04:51:00,
2013-03-07 23:56:00,32.8,31.0,29.99,South,180,0.2,0.4,93,0.00,,,0.13,WUHU216HW,2013-03-08 04:56:00,